Des Moines, IA

10:17 AM CST on January 17, 2017 (GMT -0600)
Des Moines International

Weather History for KDSM - August, 2014

Change the Weather History Date:

Monday, August 25, 2014

  Actual Average Record
Temperature  
Mean Temperature 83 °F 73 °F  
Max Temperature 92 °F 83 °F 106 °F (1936)
Min Temperature 73 °F 64 °F 44 °F (1934)
Degree Days  
Heating Degree Days 0 0  
Month to date heating degree days 0 0  
Since 1 June heating degree days 2 18  
Since 1 July heating degree days 2 1  
Cooling Degree Days 18 8  
Month to date cooling degree days 268 248  
Year to date cooling degree days 908 894  
Since 1 June cooling degree days 777 818  
Growing Degree Days 34 (Base 50)    
Moisture  
Dew Point 72 °F    
Average Humidity 69    
Maximum Humidity 82    
Minimum Humidity 55    
Precipitation  
Precipitation 0.01 in 0.13 in 3.45 in (1987)
Month to date precipitation 5.58 3.39  
Year to date precipitation 26.59 25.98  
Snow  
Snow 0.00 in 0.00 in - ()
Month to date snowfall 0.0 0.0  
Since 1 June snowfall 0.0 0.0  
Since 1 July snowfall 0.0 0.0  
Snow Depth 0.00 in    
Sea Level Pressure  
Sea Level Pressure 29.92 in    
Wind  
Wind Speed 7 mph (NNW)    
Max Wind Speed 16 mph    
Max Gust Speed 20 mph    
Visibility 10 miles    
Events Rain , Thunderstorm    
T = Trace of Precipitation, MM = Missing Value Source: NWS Daily Summary

Daily Weather History Graph

Daily Weather History Graph

Search for Another Location

Airport or City:

Trip Planner

Search our weather history database for the weather conditions in past years. The results will help you decide how hot, cold, wet, or windy it might be!

Date:

Astronomy

Aug. 25, 2014 Rise Set
Actual Time 6:33 AM CDT 7:58 PM CDT
Civil Twilight 6:04 AM CDT 8:27 PM CDT
Nautical Twilight 5:29 AM CDT 9:02 PM CDT
Astronomical Twilight 4:52 AM CDT 9:39 PM CDT
Moon 6:40 AM CDT (8/25) 7:48 PM CDT (8/25)
Length of Visible Light 14h 23m
Length of Day
13h 25m
New Moon, 0% of the Moon is Illuminated
Aug 25
New Moon
Sep 2
First Quarter
Sep 8
Full
Sep 15
Last Quarter
Sep 24
New

Hourly Weather History & Observations

Time (CDT) Temp. Heat Index Dew Point Humidity Pressure Visibility Wind Dir Wind Speed Gust Speed Precip Events Conditions
12:54 AM 80.1 °F 84.2 °F 73.0 °F 79% 29.85 in 10.0 mi South 8.1 mph - N/A   Mostly Cloudy
1:54 AM 80.1 °F 83.6 °F 71.1 °F 74% 29.85 in 10.0 mi South 5.8 mph - N/A   Mostly Cloudy
2:54 AM 79.0 °F - 72.0 °F 79% 29.86 in 10.0 mi SSW 3.5 mph - 0.00 in Rain , Thunderstorm Light Thunderstorms and Rain
3:54 AM 78.8 °F - 71.6 °F 78% 29.87 in 10.0 mi South 8.1 mph - N/A   Mostly Cloudy
4:54 AM 79.0 °F - 71.1 °F 77% 29.86 in 10.0 mi Calm Calm - N/A   Scattered Clouds
5:54 AM 77.0 °F - 72.0 °F 84% 29.87 in 10.0 mi ENE 4.6 mph - N/A   Mostly Cloudy
6:54 AM 78.8 °F - 71.6 °F 78% 29.91 in 10.0 mi SSW 4.6 mph - N/A   Mostly Cloudy
7:54 AM 79.0 °F - 71.1 °F 77% 29.89 in 10.0 mi NW 3.5 mph - N/A   Scattered Clouds
8:54 AM 81.0 °F 84.9 °F 71.1 °F 72% 29.90 in 10.0 mi Variable 3.5 mph - N/A   Mostly Cloudy
9:54 AM 84.0 °F 90.2 °F 73.0 °F 69% 29.92 in 10.0 mi West 5.8 mph - N/A   Scattered Clouds
10:54 AM 87.1 °F 95.4 °F 73.9 °F 65% 29.94 in 10.0 mi West 8.1 mph - N/A   Scattered Clouds
11:54 AM 88.0 °F 97.5 °F 75.0 °F 65% 29.96 in 10.0 mi NNW 8.1 mph - N/A   Scattered Clouds
12:54 PM 88.0 °F 97.5 °F 75.0 °F 65% 29.96 in 10.0 mi NW 11.5 mph - N/A   Scattered Clouds
1:54 PM 88.0 °F 96.5 °F 73.9 °F 63% 29.95 in 10.0 mi North 9.2 mph 19.6 mph N/A   Partly Cloudy
2:54 PM 89.1 °F 97.0 °F 73.0 °F 59% 29.91 in 10.0 mi Variable 3.5 mph - N/A   Partly Cloudy
3:54 PM 89.1 °F 97.0 °F 73.0 °F 59% 29.91 in 10.0 mi NNE 6.9 mph - N/A   Mostly Cloudy
4:54 PM 87.1 °F 94.5 °F 73.0 °F 63% 29.94 in 10.0 mi NNW 12.7 mph - N/A   Mostly Cloudy
5:54 PM 88.0 °F 94.7 °F 72.0 °F 59% 29.95 in 10.0 mi North 9.2 mph - N/A   Partly Cloudy
6:54 PM 87.1 °F 92.8 °F 71.1 °F 59% 29.94 in 10.0 mi NNE 8.1 mph - N/A   Partly Cloudy
7:54 PM 84.9 °F 87.6 °F 66.9 °F 55% 29.93 in 10.0 mi East 3.5 mph - N/A   Partly Cloudy
8:54 PM 81.0 °F 84.4 °F 70.0 °F 69% 29.96 in 10.0 mi North 9.2 mph - N/A   Partly Cloudy
9:54 PM 78.8 °F - 68.0 °F 69% 30.01 in 10.0 mi North 9.2 mph - N/A   Mostly Cloudy
10:54 PM 77.0 °F - 66.0 °F 69% 30.01 in 10.0 mi NNE 6.9 mph - N/A   Mostly Cloudy
11:54 PM 75.0 °F - 64.0 °F 69% 30.01 in 10.0 mi NNE 12.7 mph - N/A   Partly Cloudy